Location: Smithers
(54.7670°N, 127.1670°W)
Time: 23:59:21
(UTC-08:00)

Daily predictions for brighter satellites

Satellite Brightness Start Highest point End
(mag) Time Altitude Azimuth Time Altitude Azimuth Time Altitude Azimuth
Cosmos 2228 Rocket 3.7 17:14:59 10° N 17:19:03 34° ENE 17:23:05 10° SE
COSMOS 2428 4.0 17:16:10 10° SSE 17:20:20 21° ESE 17:24:30 10° NE
CSL-04 Rocket 4.3 17:14:58 10° S 17:20:25 65° WSW 17:25:50 10° NNW
CZ-4 R/B 1.2 17:18:40 10° SSE 17:22:32 68° ENE 17:26:27 10° N
Lacrosse 4 Rocket 3.2 17:20:01 10° NNW 17:22:33 16° NNE 17:25:04 10° NE
USA 238 DEB 3.9 17:15:58 10° SW 17:23:02 82° NW 17:30:07 10° NE
USA 238 3.9 17:16:04 10° SW 17:23:08 82° NW 17:30:14 10° NE
Cosmos 1464 Rocket 4.1 17:16:58 10° NNW 17:23:12 90° WNW 17:29:21 10° S
Cosmos 2369 Rocket 3.9 17:19:52 10° NNW 17:23:24 16° N 17:26:56 10° NE
Cosmos 1607 4.3 17:17:51 10° WSW 17:23:55 60° NW 17:30:06 10° NE
SAR-Lupe-3 4.5 17:21:12 10° NNE 17:24:42 70° ESE 17:28:08 10° S
Cosmos 2150 Rocket 4.2 17:21:08 10° NNW 17:26:26 82° WSW 17:31:38 10° SSE
YAOGAN 1 2.6 17:23:01 10° SSE 17:27:17 59° ENE 17:31:34 10° N
Cosmos 1726 3.5 17:24:36 10° NNE 17:27:22 19° ENE 17:30:08 10° ESE
Thor Agena Rocket 4.4 17:23:06 10° NNE 17:27:48 31° E 17:32:26 10° SSE
Cosmos 1898 Rocket 4.0 17:23:02 10° NNW 17:28:22 69° WSW 17:33:40 10° SSE
Cosmos 1378 3.2 17:26:12 10° SSW 17:29:56 83° WNW 17:33:42 10° N
MOS 1 4.3 17:25:27 10° SSE 17:31:05 76° ENE 17:36:47 10° NNW
Cosmos 1707 3.7 17:28:08 10° SSW 17:31:53 48° WNW 17:35:39 10° N
SPOT 3 Rocket 3.5 17:28:59 10° SSE 17:34:07 74° ENE 17:39:19 10° NNW
USA 116 4.2 17:32:24 10° NNE 17:35:29 30° E 17:38:20 10° SSE
Cosmos 1125 Rocket 3.8 17:30:51 10° NNW 17:35:52 43° NE 17:40:49 10° SE
Meteor 2-2 Rocket 4.4 17:31:01 10° N 17:36:33 51° ENE 17:42:00 10° SE
Cosmos 1408 Rocket 4.0 17:33:09 10° SSE 17:37:20 42° E 17:41:31 10° NNE
ATLAS 3B R/B 3.2 17:30:55 10° WSW 17:38:16 59° NNW 17:45:17 10° NE
Cosmos 990 Rocket 4.1 17:34:44 10° NNW 17:40:02 88° WSW 17:45:18 10° SSE
MTI 4.2 17:38:56 10° N 17:42:12 68° WNW 17:45:26 10° SSW
USA 215 3.6 17:37:14 10° SE 17:43:47 69° SSW 17:50:21 10° WNW
CZ-2C R/B 3.8 17:39:11 10° NNE 17:43:59 84° ESE 17:48:47 10° SSW
Meteor 1-24 Rocket 4.0 17:40:01 10° SSW 17:46:01 85° WNW 17:52:07 10° NNE
Cosmos 2322 4.0 17:42:18 10° S 17:47:47 53° ESE 17:53:20 10° NE
IDEFIX/ARIANE 42P 2.8 17:43:04 10° S 17:48:18 77° WSW 17:53:35 10° NNW
CZ-4 R/B 4.4 17:45:02 10° SSE 17:49:09 73° ENE 17:53:19 10° NNW
NOSS 3-2 (A) 3.6 17:43:47 10° SW 17:50:02 84° SE 17:56:41 11° NE
Okean 3 Rocket 3.7 17:46:18 10° SSW 17:50:46 80° WNW 17:55:18 10° N
Cosmos 1844 Rocket 2.8 17:47:38 10° NW 17:53:21 83° WSW 17:59:01 10° SSE
NOSS 3-2 (C) 3.6 17:47:13 10° SW 17:53:26 76° SE 17:59:53 12° NE
In-Cosmos 22 4.1 17:49:29 10° S 17:54:50 74° E 18:00:22 10° NNE
SL-16 R/B 2.5 17:49:24 10° SW 17:55:04 68° NW 18:00:46 10° NNE
Cosmos 1328 Rocket 3.5 17:53:33 10° N 17:58:00 69° ENE 18:02:26 10° SSE
SJ-6B 3.8 17:54:42 10° ESE 17:58:11 27° ENE 18:01:42 10° N
Cosmos 1743 Rocket 4.2 17:54:38 10° SSE 17:58:43 36° E 18:02:50 10° NNE
Tsikada Rocket 4.1 17:52:53 10° S 17:59:09 63° E 18:05:31 10° NNE
Cosmos 1238 4.4 17:56:12 10° S 18:00:03 74° E 18:03:16 10° NNE
Cosmos 724 4.4 17:54:15 10° SW 18:00:26 83° SE 18:06:14 13° NE
Cosmos 2285 Rocket 4.3 17:55:01 10° SW 18:01:18 70° WNW 18:07:42 10° NNE
Cosmos 841 Rocket 4.3 17:57:23 10° SSE 18:02:01 32° ESE 18:05:58 13° NE
Cosmos 1515 Rocket 3.6 17:59:21 10° N 18:03:48 61° ENE 18:08:14 10° SSE
SKYMED 2 4.3 18:02:30 10° NNE 18:06:26 32° E 18:10:20 10° SSE
Meteor 1-21 Rocket 4.3 18:01:55 10° S 18:07:45 64° E 18:13:32 10° NNE
Orbus 7S? 3.3 18:04:55 10° WNW 18:07:54 74° NNE 18:12:39 14° E
Cosmos 468 Rocket 3.9 18:03:28 10° SSW 18:08:36 69° ESE 18:13:45 10° NNE
Cosmos 2360 Rocket 2.1 18:07:06 10° SSW 18:12:45 81° ESE 18:18:07 11° NE
Cosmos 1980 Rocket 3.6 18:08:56 10° W 18:13:52 30° NW 18:18:48 10° NNE
ALOS 3.1 18:10:33 10° ESE 18:14:29 27° ENE 18:18:25 10° N
Cosmos 389 Rocket 3.9 18:13:43 10° NNW 18:17:11 42° W 18:20:35 10° SSW
Cosmos 1151 Rocket 3.0 18:13:05 10° N 18:17:19 58° ENE 18:21:32 10° SSE
Cosmos 2151 3.9 18:14:10 10° SE 18:17:41 26° E 18:19:07 22° ENE
CZ-4C R/B 3.3 18:12:04 10° W 18:17:43 41° N 18:22:30 17° NE
FREGAT/IRIS 3.5 18:17:45 28° ENE 18:17:52 28° ENE 18:20:34 10° N
Cosmos 1634 Rocket 3.9 18:14:03 10° N 18:20:18 77° ENE 18:26:29 10° SSE
Cosmos 371 Rocket 4.2 18:17:32 10° SSE 18:21:38 29° ESE 18:23:22 23° ENE
Cosmos 2333 Rocket 3.1 18:18:59 10° SSE 18:23:40 27° ESE 18:25:43 22° ENE
Cosmos 1076 Rocket 4.0 18:21:41 10° SSW 18:25:53 59° WNW 18:30:08 10° N
Cosmos 1500 Rocket 3.8 18:21:50 10° SSE 18:25:58 45° E 18:29:54 11° NNE
CENTAUR R/B 2.9 18:21:24 10° SSW 18:27:26 50° SE 18:32:02 21° ENE
Cosmos 1697 Rocket 4.5 18:23:10 10° WNW 18:27:34 22° NNW 18:31:59 10° NNE
Meteor 1-27 4.3 18:21:52 10° N 18:27:37 59° ENE 18:33:21 10° SSE
Cosmos 1908 4.5 18:25:00 10° NNW 18:28:42 44° W 18:32:24 10° SSW
FENGYUN 3A 4.1 18:25:03 10° SE 18:29:59 39° ENE 18:34:57 10° N
Lacrosse 5 1.8 18:27:08 10° WSW 18:32:13 82° SSE 18:35:01 27° ENE
BREEZE M DEB (TANK) 4.0 18:30:06 10° W 18:32:41 19° SSW 18:34:26 10° SSE
ATLAS 5 CENTAUR R/B 3.1 18:28:12 10° WNW 18:33:03 34° N 18:36:00 21° NE
Cosmos 1174 4.1 18:32:21 10° WSW 18:35:16 43° NW 18:36:51 24° NNE
CZ-2C R/B 4.3 18:30:55 10° SSW 18:35:25 33° W 18:39:49 10° NNW
SL-19 R/B 4.4 18:30:34 10° SE 18:36:14 56° ENE 18:41:43 10° NNW
Cosmos 1455 4.2 18:33:54 10° N 18:34:39 14° NNE 18:34:39 14° NNE
Cosmos 2278 Rocket 2.3 18:31:42 10° NW 18:37:25 82° WSW 18:43:06 10° SSE
Meteor 2-10 3.9 18:32:56 10° N 18:37:58 65° ENE 18:43:04 10° SSE
SL-14 R/B 3.7 18:35:23 10° SSE 18:39:02 37° E 18:39:35 35° ENE
Cosmos 44 Rocket 4.3 18:35:30 10° S 18:39:49 28° ESE 18:40:37 27° ESE
Cosmos 2322 Rocket 3.3 18:34:50 10° WSW 18:40:10 39° NW 18:45:11 11° NNE
Cosmos 2219 Rocket 2.5 18:35:17 10° S 18:40:34 43° ESE 18:43:10 27° ENE
Timation 1 Rocket 4.3 18:34:37 10° NNW 18:40:40 71° NE 18:46:41 10° SE
METEOR-M 4.0 18:39:16 10° SSE 18:44:36 77° ENE 18:50:00 10° NNW
Cosmos 1484 Rocket 3.9 18:41:04 10° S 18:44:52 47° W 18:48:46 10° NNW
Cosmos 1900 4.3 18:41:30 10° NW 18:46:26 68° NE 18:49:14 26° ESE
Cosmos 1674 3.1 18:44:05 10° SSW 18:47:53 63° WNW 18:51:44 10° N
Resurs 01 Rocket 1.9 18:46:15 19° SE 18:49:07 46° ENE 18:53:23 10° N
Cosmos 1763 Rocket 3.4 18:45:20 10° SSW 18:50:33 80° ESE 18:54:07 21° NNE
Cosmos 372 Rocket 4.0 18:47:11 10° NNW 18:52:20 81° WSW 18:57:26 10° SSE
Cosmos 1943 Rocket 3.6 18:48:44 10° NNW 18:52:41 19° NNE 18:53:20 19° NNE
COSMO-SKYMED 1 2.4 18:50:46 13° NNE 18:54:40 83° ESE 18:59:01 10° SSW
Cosmos 1300 3.1 18:52:02 10° NNW 18:55:51 65° W 18:59:39 10° S
Lacrosse 5 rocket 2.1 18:53:05 10° WNW 18:56:40 45° SSW 18:58:43 23° SSE
NOSS 0 Rocket 4.2 18:52:21 10° S 18:58:11 44° ESE 19:00:13 34° ENE
Cosmos 1707 Rocket 3.6 18:54:49 10° N 18:59:05 53° ENE 19:00:21 38° SE
COSMOS 2455 4.1 18:56:07 10° W 19:01:30 32° NNW 19:05:03 19° NNE
Lacrosse 4 Rocket 2.1 18:58:31 10° NNW 19:01:56 36° NNE 19:01:56 36° NNE
Cosmos 1726 3.0 18:59:21 10° NNW 19:03:01 52° W 19:06:41 10° S
Resurs 1-3 3.7 19:03:12 49° E 19:03:35 51° ENE 19:07:52 10° N
COSMOS 2428 2.7 18:58:11 10° SSW 19:03:55 89° NW 19:07:24 25° NNE
Thor Agena Rocket 4.3 19:02:13 10° N 19:07:22 53° WNW 19:12:27 10° SW
Cosmos 2237 4.4 19:03:32 10° SW 19:09:15 74° NW 19:12:52 24° NNE
Cosmos 2369 Rocket 3.1 19:04:22 10° NNW 19:09:22 30° NE 19:09:30 30° NE
Cosmos 2237 Rocket 2.4 19:04:33 10° S 19:09:52 44° ESE 19:10:28 43° E
Cosmos 2279 Rocket 4.1 19:07:28 10° NNW 19:13:41 78° W 19:19:54 10° S
Cosmos 540 Rocket 3.5 19:08:42 10° S 19:13:44 52° ESE 19:14:11 51° E
SL-16 R/B 4.0 19:09:38 10° SSE 19:10:53 15° SSE 19:10:53 15° SSE
USA 238 DEB 4.4 19:08:06 10° W 19:14:49 45° NNW 19:18:08 28° NE
DMSP B5D1-3 4.4 19:10:13 13° NNE 19:14:53 87° ESE 19:20:00 10° SSW
USA 238 4.4 19:08:12 10° W 19:14:55 45° NNW 19:18:14 28° NE
Cosmos 2297 3.7 19:09:38 10° NW 19:15:22 85° WSW 19:20:00 16° SSE
Meteor 1-28 Rocket 3.3 19:19:54 57° NNW 19:20:31 72° WNW 19:24:13 10° SSW
Cosmos 1328 4.1 19:17:53 10° SSW 19:21:49 64° WNW 19:23:23 34° N
Cosmos 1867 4.3 19:23:55 10° NW 19:29:02 38° NNE 19:29:08 38° NNE
ATLAS 3B R/B 3.5 19:23:24 10° WNW 19:30:15 41° N 19:32:34 32° NE
Meteor 1-11 4.1 19:24:51 10° S 19:30:33 85° ESE 19:35:33 14° NNE
Cosmos 332 Rocket 4.0 19:26:05 10° SW 19:30:55 70° WNW 19:32:35 40° N
SJ-6B 4.0 19:28:47 10° S 19:32:41 44° W 19:36:41 10° NNW
Helios 1A 4.2 19:35:09 32° N 19:35:09 32° N 19:37:30 10° NNW
Cosmos 2058 3.1 19:29:22 10° SSW 19:32:53 64° SSW 19:32:53 64° SSW
Spot 2 Rocket 3.5 19:30:38 10° SSE 19:35:42 78° WSW 19:40:47 10° NNW
SL-16 R/B 4.0 19:35:40 10° W 19:40:13 24° NNW 19:43:13 16° NNE
NOSS 3-2 (A) 4.3 19:35:16 10° W 19:41:32 48° NNW 19:44:05 34° NNE
Nadezhda 4 Rocket 3.9 19:36:02 10° S 19:42:12 64° E 19:48:27 10° NNE
Cosmos 841 Rocket 4.1 19:38:32 10° SW 19:43:43 54° NW 19:46:06 30° N
NOSS 3-2 (C) 4.2 19:38:33 10° W 19:44:51 50° NNW 19:47:20 36° NNE
Spot 1 4.3 19:46:53 78° WNW 19:46:53 78° WNW 19:51:14 10° NNW
DNEPR-1 R/B 4.1 19:41:57 10° SW 19:48:22 71° SE 19:48:22 71° SE
ALOS 2.9 19:47:06 10° S 19:51:41 55° W 19:56:17 10° NNW
Cosmos 2151 4.1 19:50:50 10° SW 19:54:50 42° WNW 19:55:47 36° NW
Cosmos 1980 3.6 19:51:12 10° SSW 19:56:54 90° W 19:57:00 87° NNE
Cosmos 44 4.3 19:51:47 10° SSW 19:55:04 37° SSW 19:55:04 37° SSW
Cosmos 2360 Rocket 3.7 19:52:24 10° W 19:57:22 31° NW 19:59:53 22° N
Cosmos 1980 Rocket 4.2 19:56:19 10° NW 19:59:45 16° N 20:01:04 15° N
Cosmos 371 Rocket 3.9 19:57:07 10° SW 20:01:50 53° WNW 20:02:06 52° NW
Cosmos 2333 Rocket 2.3 20:01:51 10° SW 20:07:30 71° NW 20:07:47 70° NNW
CZ-4C R/B 3.1 20:01:29 10° NW 20:07:37 45° NNE 20:07:41 45° NNE
Lacrosse 5 2.6 20:10:20 10° W 20:14:14 50° WNW 20:14:14 50° WNW
CENTAUR R/B 2.9 20:11:35 10° WSW 20:18:03 64° NNW 20:19:14 56° NNE
ATLAS 5 CENTAUR R/B 3.1 20:13:27 10° NW 20:17:33 41° NNW 20:17:33 41° NNW
Cosmos 44 Rocket 4.4 20:15:55 10° SW 20:19:23 43° WSW 20:19:23 43° WSW
Cosmos 2219 Rocket 2.9 20:19:04 10° WSW 20:24:32 49° NW 20:24:55 48° NNW
Resurs 01 Rocket 3.5 20:23:48 21° SW 20:25:47 28° W 20:29:40 10° NNW
Cosmos 2322 Rocket 4.2 20:22:01 10° WNW 20:25:50 18° NNW 20:27:00 17° N
Lacrosse 5 rocket 4.3 20:34:02 10° WSW 20:34:29 11° WSW 20:34:29 11° WSW
Cosmos 1943 Rocket 3.8 20:32:26 10° NNW 20:34:52 25° NNW 20:34:52 25° NNW
Lacrosse 4 Rocket 4.1 20:37:17 10° NW 20:38:18 16° NW 20:38:18 16° NW
COSMOS 2428 4.3 20:44:01 10° W 20:48:56 29° NW 20:49:27 28° NNW
Cosmos 2237 Rocket 3.4 20:48:31 10° WSW 20:52:21 37° W 20:52:21 37° W
Cosmos 2369 Rocket 3.6 20:48:22 10° NW 20:51:18 32° NW 20:51:18 32° NW
SL-16 R/B 4.5 20:52:00 10° SW 20:52:51 15° SW 20:52:51 15° SW
ATLAS 3B R/B 3.8 21:15:19 10° NW 21:19:50 37° NNW 21:19:50 37° NNW
CZ-4C R/B 4.3 21:50:11 10° NW 21:52:52 27° NW 21:52:52 27° NW
CENTAUR R/B 4.5 22:03:23 10° WNW 22:06:26 26° WNW 22:06:26 26° WNW
